KL7LK-13 Weather Reports


Display with metric or nautical units.
time (UTC)temp
F
wind
direction
speed
MPH
gust
MPH
rain 1hr
in
rain 24hr
in
rain mn
in
humidity
%
barometer
mb
20260507051226 41 356 0.0 1.0 0.00 0.00 0.00 53 1035.2
20260507050206 41 86 1.0 2.0 0.00 0.00 0.00 51 1035.2
20260507045431 41 10 0.0 1.0 0.00 0.00 0.00 51 1035.2
20260507044330 41 123 0.0 2.0 0.00 0.00 0.00 49 1035.1
20260507043311 41 167 1.0 3.0 0.00 0.00 0.00 49 1035.0
20260507042251 41 146 0.0 3.0 0.00 0.00 0.00 49 1035.0
20260507041231 41 11 0.0 2.0 0.00 0.00 0.00 49 1035.0
20260507040212 41 156 1.0 2.0 0.00 0.00 0.00 49 1035.1
20260507035456 41 8 0.0 1.0 0.00 0.00 0.00 47 1035.0
20260507034335 41 163 0.0 2.0 0.00 0.00 0.00 47 1035.0
20260507033316 41 284 1.0 5.0 0.00 0.00 0.00 46 1035.0
20260507032256 41 102 1.0 3.0 0.00 0.00 0.00 47 1034.9
20260507031236 42 292 0.0 2.0 0.00 0.00 0.00 47 1034.9
20260507030257 42 115 1.0 5.0 0.00 0.00 0.00 48 1035.0
20260507025421 42 138 1.0 5.0 0.00 0.00 0.00 47 1034.9
20260507024502 42 136 2.0 5.0 0.00 0.00 0.00 47 1034.8
20260507023342 42 128 1.0 3.0 0.00 0.00 0.00 47 1034.7
20260507022301 42 193 2.0 6.0 0.00 0.00 0.00 46 1034.5
20260507021241 42 282 1.0 6.0 0.00 0.00 0.00 45 1034.6
20260507020222 43 281 1.0 5.0 0.00 0.00 0.00 44 1034.5
20260507015202 43 177 1.0 6.0 0.00 0.00 0.00 45 1034.4
20260507014142 43 163 2.0 6.0 0.00 0.00 0.00 44 1034.5
20260507013122 43 274 1.0 5.0 0.00 0.00 0.00 43 1034.6
20260507012143 43 237 1.0 5.0 0.00 0.00 0.00 44 1034.5
20260507011246 43 199 1.0 5.0 0.00 0.00 0.00 44 1034.5
20260507010226 43 111 3.0 6.0 0.00 0.00 0.00 45 1034.5
20260507005247 42 313 2.0 6.0 0.00 0.00 0.00 43 1034.5
20260507004207 42 246 3.0 5.0 0.00 0.00 0.00 42 1034.4
20260507003128 43 221 2.0 6.0 0.00 0.00 0.00 44 1034.4
20260507002108 43 141 2.0 8.0 0.00 0.00 0.00 46 1034.3
20260507001252 43 169 2.0 6.0 0.00 0.00 0.00 44 1034.4
20260507000233 44 170 2.0 6.0 0.00 0.00 0.00 44 1034.3
20260506235212 44 202 2.0 5.0 0.00 0.00 0.00 45 1034.3
20260506234152 44 350 1.0 6.0 0.00 0.00 0.00 48 1034.1
20260506233132 43 2 2.0 5.0 0.00 0.00 0.00 48 1034.1
20260506232113 44 186 2.0 7.0 0.00 0.00 0.00 44 1034.1
20260506231257 45 92 2.0 6.0 0.00 0.00 0.00 44 1034.0
20260506230257 45 90 2.0 8.0 0.00 0.00 0.00 45 1034.0
20260506225217 44 170 2.0 8.0 0.00 0.00 0.00 45 1034.1
20260506224158 44 152 2.0 7.0 0.00 0.00 0.00 48 1034.0
20260506223137 44 148 2.0 8.0 0.00 0.00 0.00 51 1034.2
20260506222118 44 58 2.0 7.0 0.00 0.00 0.00 50 1034.0
20260506221302 43 81 2.0 6.0 0.00 0.00 0.00 51 1034.0
20260506220242 43 89 2.0 6.0 0.00 0.00 0.00 51 1034.0
20260506215306 43 248 1.0 3.0 0.00 0.00 0.00 57 1034.0
20260506214203 42 125 2.0 7.0 0.00 0.00 0.00 60 1034.0
20260506213203 43 149 2.0 6.0 0.00 0.00 0.00 60 1034.0
20260506212124 42 94 2.0 6.0 0.00 0.00 0.00 62 1034.1
20260506211307 41 117 1.0 3.0 0.00 0.00 0.00 64 1034.0
20260506210308 41 231 1.0 3.0 0.00 0.00 0.00 65 1033.9
20260506205228 40 327 1.0 3.0 0.00 0.00 0.00 67 1033.9
20260506204209 40 94 1.0 6.0 0.00 0.00 0.00 66 1034.0
20260506203148 40 59 2.0 7.0 0.00 0.00 0.00 67 1033.9
20260506202149 39 128 2.0 7.0 0.00 0.00 0.00 70 1033.9
20260506201313 40 174 2.0 7.0 0.00 0.00 0.00 72 1033.9
20260506200253 40 120 2.0 8.0 0.00 0.00 0.00 75 1033.8
20260506195234 39 128 1.0 7.0 0.00 0.00 0.00 77 1033.7
20260506194214 39 199 1.0 6.0 0.00 0.00 0.00 76 1033.7
20260506193215 38 147 2.0 7.0 0.00 0.00 0.00 77 1033.7
20260506192134 38 103 2.0 5.0 0.00 0.00 0.00 79 1033.4
20260506191318 37 200 1.0 6.0 0.00 0.00 0.00 82 1033.5
20260506190319 37 233 1.0 5.0 0.00 0.00 0.00 84 1033.4
20260506185238 37 146 1.0 3.0 0.00 0.00 0.00 86 1033.3
20260506184259 36 116 1.0 5.0 0.00 0.00 0.00 86 1033.3
20260506183159 36 144 1.0 7.0 0.00 0.00 0.00 88 1033.2
20260506182200 36 296 0.0 2.0 0.00 0.00 0.00 88 1033.2
20260506181120 36 130 1.0 5.0 0.00 0.00 0.00 90 1033.2
20260506180303 35 147 1.0 5.0 0.00 0.00 0.00 91 1032.9
20260506175243 35 22 1.0 3.0 0.00 0.00 0.00 93 1033.1
20260506174244 35 343 1.0 3.0 0.00 0.00 0.00 94 1032.9
20260506173144 35 351 0.0 2.0 0.00 0.00 0.00 94 1032.9
20260506172144 35 247 1.0 3.0 0.00 0.00 0.00 94 1032.8
20260506171307 34 297 1.0 7.0 0.00 0.00 0.00 94 1032.9
20260506170248 34 157 1.0 5.0 0.00 0.00 0.00 95 1032.7
20260506165247 34 176 2.0 5.0 0.00 0.00 0.00 95 1032.6
20260506164248 34 184 1.0 3.0 0.00 0.00 0.00 98 1032.5
20260506163147 34 85 1.0 2.0 0.00 0.00 0.00 99 1032.5
20260506162128 34 354 1.0 3.0 0.00 0.00 0.00 98 1032.2
20260506161311 34 49 0.0 2.0 0.00 0.00 0.00 98 1032.3
20260506160251 34 150 1.0 5.0 0.00 0.00 0.00 98 1032.2
20260506155250 34 153 0.0 2.0 0.00 0.00 0.00 98 1032.1
20260506154209 34 203 1.0 5.0 0.00 0.00 0.00 98 1032.1
20260506153149 34 202 1.0 3.0 0.00 0.00 0.00 98 1031.9
20260506152129 34 82 0.0 5.0 0.00 0.00 0.00 97 1031.9
20260506151313 34 333 1.0 2.0 0.00 0.00 0.00 97 1031.8
20260506150314 34 130 1.0 2.0 0.00 0.00 0.00 97 1031.7
20260506145255 34 281 0.0 3.0 0.00 0.00 0.00 97 1031.5
20260506144215 34 11 0.0 1.0 0.00 0.00 0.00 97 1031.4
20260506143155 34 224 0.0 2.0 0.00 0.00 0.00 97 1031.4
20260506142136 34 331 1.0 3.0 0.00 0.00 0.00 98 1031.4
20260506141320 34 278 0.0 2.0 0.00 0.00 0.00 97 1031.2
20260506140321 34 68 1.0 2.0 0.00 0.00 0.00 97 1031.2
20260506135241 34 88 0.0 2.0 0.00 0.00 0.00 97 1031.1
20260506134222 34 90 0.0 3.0 0.00 0.00 0.00 98 1031.0
20260506133202 35 319 0.0 2.0 0.00 0.00 0.00 99 1030.9
20260506132140 35 87 0.0 5.0 0.00 0.00 0.00 99 1030.7
20260506131324 35 348 0.0 1.0 0.00 0.00 0.00 99 1030.7
20260506130304 35 71 1.0 2.0 0.00 0.00 0.00 99 1030.7
20260506125245 35 19 0.0 1.0 0.00 0.00 0.00 99 1030.5
20260506124226 36 308 0.0 2.0 0.00 0.00 0.00 99 1030.4
20260506123206 36 0.0 0.0 0.00 0.00 0.00 99 1030.2
20260506122147 36 0.0 0.0 0.00 0.00 0.00 99 1030.1
20260506121330 36 3 0.0 2.0 0.00 0.00 0.00 99 1030.1
20260506120332 36 10 0.0 1.0 0.00 0.00 0.00 99 1030.0
20260506115252 37 0.0 0.0 0.00 0.00 0.00 99 1029.9
20260506114233 37 30 0.0 2.0 0.00 0.00 0.00 99 1029.7
20260506113211 37 3 0.0 1.0 0.00 0.00 0.00 99 1029.6
20260506112151 37 0.0 1.0 0.00 0.00 0.00 99 1029.6
20260506111333 37 1 0.0 1.0 0.00 0.00 0.00 99 1029.4
20260506110314 38 354 0.0 1.0 0.00 0.00 0.00 99 1029.3
20260506105254 38 0.0 0.0 0.00 0.00 0.00 99 1029.2
20260506104235 38 0.0 1.0 0.00 0.00 0.00 99 1029.1
20260506103216 38 0.0 0.0 0.00 0.00 0.00 99 1029.0
20260506102156 38 0.0 0.0 0.00 0.00 0.00 99 1029.0
20260506101340 38 0.0 0.0 0.00 0.00 0.00 99 1028.8
20260506100321 38 0.0 0.0 0.00 0.00 0.00 99 1028.7
20260506095305 38 0.0 0.0 0.00 0.00 0.00 99 1028.6
20260506094242 38 0.0 0.0 0.00 0.00 0.00 99 1028.4
20260506093222 38 0.0 0.0 0.00 0.00 0.00 99 1028.2
20260506092203 38 0.0 1.0 0.00 0.00 0.00 99 1028.2
20260506091143 39 306 0.0 1.0 0.00 0.00 0.00 98 1028.1
20260506090327 39 275 0.0 3.0 0.00 0.00 0.00 98 1027.7
20260506085306 39 10 2.0 7.0 0.00 0.00 0.00 99 1027.8
20260506084245 39 292 0.0 2.0 0.00 0.00 0.00 99 1028.0
20260506083307 39 306 1.0 2.0 0.00 0.00 0.00 99 1027.6
20260506082206 39 336 1.0 2.0 0.00 0.00 0.00 99 1027.5
20260506081147 40 337 1.0 2.0 0.00 0.00 0.00 99 1027.5
20260506080330 40 354 0.0 1.0 0.00 0.00 0.00 99 1027.6
20260506073313 40 0.0 1.0 0.00 0.00 0.00 97 1027.6
20260506072213 41 0.0 0.0 0.00 0.00 0.00 96 1027.4
20260506071153 41 0.0 1.0 0.00 0.00 0.00 92 1027.3
20260506070337 41 349 0.0 2.0 0.00 0.00 0.00 90 1027.3
20260506062219 42 0.0 1.0 0.00 0.00 0.00 88 1026.7
20260506061159 43 5 0.0 1.0 0.00 0.00 0.00 86 1026.8
20260506060343 43 0.0 0.0 0.00 0.00 0.00 85 1026.7